Monroe, LA

3:20 AM CST on December 12, 2017 (GMT -0600)
Monroe Regional

Weather History for KMLU - October, 2012

Change the Weather History Date:

Sunday, October 21, 2012

  Actual Average Record
Temperature  
Mean Temperature 72 °F 64 °F  
Max Temperature 85 °F 78 °F 94 °F (1934)
Min Temperature 59 °F 51 °F 30 °F (1976)
Degree Days  
Heating Degree Days 0 3  
Month to date heating degree days 41 40  
Since 1 July heating degree days 42 46  
Cooling Degree Days 7 3  
Month to date cooling degree days 66 97  
Year to date cooling degree days 2735 2461  
Growing Degree Days 20 (Base 50)    
Moisture  
Dew Point 56 °F    
Average Humidity 61    
Maximum Humidity 84    
Minimum Humidity 37    
Precipitation  
Precipitation 0.00 in 0.18 in 1.54 in (1990)
Month to date precipitation 1.46 3.22  
Year to date precipitation 50.11 42.33  
Snow  
Snow 0.00 in - - ()
Month to date snowfall 0.0  
Since 1 July snowfall 0.0  
Since 1 September snowfall 0.0  
Snow Depth 0.00 in    
Sea Level Pressure  
Sea Level Pressure 30.02 in    
Wind  
Wind Speed 5 mph (South)    
Max Wind Speed 16 mph    
Max Gust Speed 22 mph    
Visibility 10 miles    
Events      
T = Trace of Precipitation, MM = Missing Value Source: NWS Daily Summary

Daily Weather History Graph

Daily Weather History Graph

Search for Another Location

Airport or City:

Trip Planner

Search our weather history database for the weather conditions in past years. The results will help you decide how hot, cold, wet, or windy it might be!

Date:

Astronomy

Oct. 21, 2012 Rise Set
Actual Time 7:16 AM CDT 6:27 PM CDT
Civil Twilight 6:51 AM CDT 6:52 PM CDT
Nautical Twilight 6:23 AM CDT 7:21 PM CDT
Astronomical Twilight 5:54 AM CDT 7:50 PM CDT
Moon 1:31 PM CDT (10/21) No Moon Set
Length of Visible Light 12h 00m
Length of Day
11h 10m
Waxing Crescent, 45% of the Moon is Illuminated
Oct 21
Waxing Crescent
Oct 21
First Quarter
Oct 29
Full
Nov 6
Last Quarter
Nov 13
New

Hourly Weather History & Observations

Time (CDT) Temp. Heat Index Dew Point Humidity Pressure Visibility Wind Dir Wind Speed Gust Speed Precip Events Conditions
12:53 AM 57.9 °F - 52.0 °F 81% 29.96 in 10.0 mi SSE 3.5 mph - N/A   Scattered Clouds
1:53 AM 61.0 °F - 51.1 °F 70% 29.97 in 10.0 mi South 4.6 mph - N/A   Mostly Cloudy
2:53 AM 60.1 °F - 53.1 °F 78% 29.98 in 10.0 mi Calm Calm - N/A   Overcast
3:53 AM 61.0 °F - 51.1 °F 70% 29.98 in 10.0 mi South 5.8 mph - N/A   Partly Cloudy
4:53 AM 60.8 °F - 51.8 °F 72% 29.99 in 10.0 mi South 4.6 mph - N/A   Overcast
5:53 AM 61.0 °F - 53.1 °F 75% 30.01 in 10.0 mi South 3.5 mph - N/A   Overcast
6:53 AM 61.0 °F - 53.1 °F 75% 30.02 in 10.0 mi Calm Calm - N/A   Overcast
7:53 AM 62.1 °F - 54.0 °F 75% 30.04 in 10.0 mi SSE 3.5 mph - N/A   Mostly Cloudy
8:53 AM 66.0 °F - 55.9 °F 70% 30.06 in 10.0 mi South 5.8 mph - N/A   Mostly Cloudy
9:53 AM 70.0 °F - 57.0 °F 63% 30.07 in 10.0 mi South 6.9 mph - N/A   Mostly Cloudy
10:53 AM 73.0 °F - 57.9 °F 59% 30.07 in 10.0 mi South 5.8 mph - N/A   Mostly Cloudy
11:53 AM 78.1 °F - 61.0 °F 56% 30.06 in 10.0 mi South 8.1 mph - N/A   Mostly Cloudy
12:53 PM 82.0 °F 83.0 °F 62.1 °F 51% 30.04 in 10.0 mi South 11.5 mph 21.9 mph N/A   Clear
1:53 PM 81.0 °F 81.7 °F 61.0 °F 50% 30.02 in 10.0 mi SW 13.8 mph - N/A   Clear
2:53 PM 82.9 °F 82.8 °F 59.0 °F 44% 29.99 in 10.0 mi SSE 6.9 mph - N/A   Clear
3:53 PM 84.0 °F 83.0 °F 55.9 °F 38% 29.99 in 10.0 mi SSW 9.2 mph - N/A   Clear
4:53 PM 82.9 °F 82.4 °F 57.0 °F 41% 29.99 in 10.0 mi South 8.1 mph - N/A   Clear
5:49 PM 80.6 °F 80.5 °F 55.4 °F 42% 29.99 in 10.0 mi SSE 6.9 mph - N/A   Partly Cloudy
5:53 PM 80.1 °F 80.1 °F 55.0 °F 42% 29.99 in 10.0 mi South 6.9 mph - N/A   Partly Cloudy
6:53 PM 73.9 °F - 57.0 °F 55% 30.00 in 10.0 mi SE 4.6 mph - N/A   Clear
7:53 PM 72.0 °F - 57.0 °F 59% 30.01 in 10.0 mi Variable 4.6 mph - N/A   Clear
8:53 PM 70.0 °F - 55.0 °F 59% 30.03 in 10.0 mi Variable 4.6 mph - N/A   Clear
9:53 PM 63.0 °F - 55.9 °F 78% 30.04 in 10.0 mi Calm Calm - N/A   Clear
10:53 PM 62.1 °F - 55.9 °F 80% 30.05 in 10.0 mi Calm Calm - N/A   Clear
11:53 PM 61.0 °F - 55.0 °F 81% 30.05 in 10.0 mi ESE 3.5 mph - N/A   Clear